Temperature
17 17 17 17 17 17 17 17 16 16 16 16 16 16 16 16 15 15 15 14 14 14 14 14 14 14 14 15 15 15 15 15 16 16 16 15 14 15 15 14 14 14 14
17 17 17 17 17 17 17 17 17 16 16 16 16 16 16 15 16 16 15 15 14 14 14 14 14 14 14 14 14 14 15 14 15 15 15 15 14 14 14 14 14 15 15
17 17 17 17 17 17 17 17 17 16 16 16 16 16 16 16 16 16 15 15 15 14 14 14 14 14 14 14 14 14 14 14 14 14 15 15 15 14 14 14 14 14 15
17 17 17 17 17 17 17 17 16 16 16 16 16 16 16 16 15 15 15 15 15 15 14 14 14 14 14 14 14 14 14 14 14 14 15 15 15 14 14 14 15 15 14
17 17 17 17 17 17 16 16 16 16 16 16 16 16 15 15 15 15 15 15 15 15 14 14 14 14 14 14 14 14 14 14 14 14 15 15 15 15 14 14 15 15 14
16 16 16 16 16 16 16 16 16 16 16 15 15 15 15 15 15 15 15 15 15 14 14 14 14 14 14 14 14 14 14 13 14 14 14 14 14 14 14 14 14 14 14
16 16 16 16 16 16 16 15 16 16 15 15 15 15 15 15 15 15 15 15 14 14 14 14 13 13 13 13 13 14 13 13 13 13 13 13 13 13 13 13 13 13 13
16 16 15 15 15 15 15 15 15 15 15 15 14 14 14 14 14 14 14 14 13 13 13 13 13 13 13 13 13 12 12 12 13 13 13 13 12 12 12 12 12 12 12
15 15 15 15 15 15 15 15 14 14 14 14 14 13 13 13 13 13 13 13 13 12 12 12 12 12 12 12 12 12 12 12 12 12 12 12 12 12 12 11 11 11 12
14 14 14 14 14 14 14 14 14 13 13 13 13 12 12 12 12 12 12 12 12 11 11 11 11 11 11 11 11 11 11 11 11 11 11 11 11 11 10 10 10 10 11
14 13 13 13 13 13 13 13 13 12 12 12 12 11 11 11 11 11 11 11 11 10 10 10 10 10 10 10 10 10 10 10 10 10 10 10 9 9 9 9 9 9 9
13 13 13 13 12 12 12 12 12 11 11 11 11 10 10 10 10 10 10 10 10 9 9 9 9 9 9 9 9 9 9 9 9 9 9 9 9 8 8 8 8 8 8
12 12 12 12 12 11 11 11 11 11 11 10 10 10 9 9 9 9 9 9 9 9 8 8 8 8 8 8 8 8 8 7 7 8 8 8 7 7 7 7 7 7 7
11 11 11 11 11 11 10 10 10 10 10 10 9 9 9 8 8 8 8 8 8 8 7 7 7 7 7 7 7 7 7 6 6 6 6 6 6 6 6 6 6 6 7
11 10 10 10 10 10 10 10 9 9 9 9 8 8 8 8 8 7 7 7 7 7 7 7 7 7 7 7 6 6 6 5 5 5 5 5 5 5 5 5 5 5 5
10 10 10 10 9 9 9 9 8 8 8 8 8 7 7 7 6 6 6 6 6 6 6 6 6 6 6 6 5 5 5 5 4 4 4 4 4 4 4 4 4 4 5
10 10 10 10 9 9 9 8 8 7 7 7 6 6 6 6 5 5 5 5 5 5 5 5 5 5 4 4 4 4 4 4 3 3 3 3 3 3 3 3 3 4 4
9 9 9 9 9 9 8 8 8 7 7 6 5 5 5 5 4 4 4 4 5 5 4 4 4 4 3 3 3 3 3 3 3 2 2 2 2 2 2 2 3 3 3
9 9 9 8 8 8 8 8 7 7 6 6 5 5 4 4 4 3 3 3 4 4 3 3 3 2 2 2 2 2 2 2 2 2 2 1 1 1 1 1 2 2 2
8 8 8 8 8 8 7 7 7 6 6 5 5 4 4 4 4 4 3 3 3 2 2 2 2 1 1 1 1 1 1 1 1 1 1 1 1 1 1 1 1 1 1
8 7 7 8 7 7 7 6 6 6 5 5 4 3 3 3 4 3 3 2 2 2 1 1 1 1 1 1 0 0 0 0 0 0 -0 -0 0 0 0 0 0 0 1
8 7 7 7 6 6 6 6 5 5 5 4 4 4 3 3 3 3 2 2 1 1 1 1 1 1 0 -0 -0 -0 -0 -0 -0 -0 -1 -0 -0 -0 -0 -0 0 0 1
7 7 7 6 6 5 5 5 5 5 4 4 4 3 3 3 2 2 1 1 1 1 0 0 0 0 -0 -0 -1 -1 -1 -1 -1 -1 -1 -1 -1 -0 -0 -0 0 0 1
7 7 6 6 5 5 5 5 4 4 4 3 3 3 2 2 2 1 1 1 0 0 -0 -0 -0 -1 -1 -1 -1 -1 -1 -1 -1 -1 -1 -1 -1 -0 -0 -0 0 0 1
6 6 6 5 5 5 4 4 4 3 3 3 3 2 2 2 1 1 1 0 -0 -0 -0 -1 -1 -1 -1 -1 -1 -1 -1 -1 -1 -1 -0 -0 -0 -0 -0 -0 -0 0 0
6 5 5 5 5 4 4 4 3 3 3 2 2 2 1 1 1 0 0 -0 -0 -0 -1 -1 -1 -1 -1 -1 -1 -1 -1 -0 -0 -0 -0 -0 -0 -0 -0 -0 0 0 0
Wind_Speed
12 12 12 12 12 12 11 11 10 9 9 10 10 10 10 10 10 9 9 8 9 8 7 7 8 7 6 6 6 6 6 6 7 6 5 4 5 8 6 8 10 11 12
11 11 11 11 11 11 11 10 10 10 10 10 10 10 10 10 10 11 11 10 10 10 9 9 9 8 8 8 7 7 7 6 8 8 6 6 7 8 8 8 10 11 12
11 11 11 10 10 10 10 10 9 9 9 9 9 10 10 10 10 10 10 10 10 10 10 10 10 9 9 9 8 8 8 8 8 8 9 6 7 7 8 9 11 9 12
11 11 10 10 10 9 9 8 9 9 9 9 9 9 9 8 9 9 10 10 10 10 9 9 10 10 10 10 9 9 9 8 8 9 9 8 8 8 7 9 9 8 9
10 10 10 9 9 8 8 7 7 7 7 7 6 6 6 6 7 8 9 10 10 10 9 9 9 7 6 7 8 8 8 9 9 9 9 9 9 7 8 8 8 8 9
9 8 8 8 7 7 7 6 6 5 5 5 5 5 4 4 1 2 7 8 8 9 8 8 7 6 6 7 8 8 8 9 10 9 9 9 9 8 7 8 9 9 10
8 7 8 8 7 6 6 6 5 5 4 4 4 3 2 1 2 2 3 5 5 5 4 4 5 4 4 6 7 10 9 9 9 10 11 10 9 7 7 10 10 11 11
9 8 8 8 8 7 6 5 4 4 4 3 3 3 3 4 5 1 1 3 2 2 2 2 3 3 3 4 6 7 7 7 8 8 8 9 8 7 7 9 11 12 12
10 9 8 8 8 8 7 6 6 6 6 6 6 6 6 8 9 5 1 1 1 0 1 1 1 1 4 5 5 6 6 6 4 4 6 8 9 9 8 8 10 11 12
10 10 9 9 9 9 9 8 7 8 8 8 9 9 10 10 12 11 6 2 2 2 2 4 7 6 6 5 4 5 5 5 6 5 5 7 8 9 10 9 9 10 12
12 12 11 11 11 11 10 9 9 9 10 10 10 10 10 10 12 13 11 5 4 4 3 3 5 8 7 6 4 3 4 6 6 6 6 6 6 6 6 7 7 8 10
13 13 12 12 11 11 11 10 9 9 10 9 9 8 7 8 10 10 11 9 7 4 3 3 4 6 4 4 3 3 5 7 6 6 6 6 6 6 6 7 9 10 11
14 13 13 12 11 10 10 9 8 7 7 7 6 6 6 6 7 7 7 6 5 3 3 3 2 2 4 3 2 3 6 5 5 6 6 6 6 7 7 8 9 10 12
13 12 11 11 11 10 8 8 8 7 7 6 6 5 5 6 7 7 5 4 3 3 4 1 7 7 5 3 4 4 4 4 5 6 7 7 7 7 8 8 9 9 10
12 11 11 11 11 11 11 10 10 10 9 7 6 6 6 6 8 10 8 7 7 7 8 5 4 4 4 4 4 4 5 5 5 6 7 8 8 8 8 8 8 9 10
10 9 9 8 8 9 10 11 15 12 14 15 15 11 9 10 7 8 8 7 8 10 8 5 5 5 6 6 6 6 6 6 7 8 8 8 8 9 9 9 9 10 10
9 8 7 7 7 6 6 7 7 8 10 12 13 12 10 7 6 7 7 8 8 9 5 5 6 6 6 7 7 7 7 7 7 8 8 8 9 9 9 10 10 10 11
9 8 7 6 6 5 5 4 4 4 4 5 8 8 5 3 3 5 9 9 4 4 6 6 7 7 7 7 7 8 8 8 8 8 8 9 9 9 10 10 10 11 12
7 6 6 6 5 5 4 4 4 4 4 4 3 4 3 3 6 4 6 6 7 7 7 7 7 7 7 8 8 8 9 9 9 9 9 9 9 10 10 10 11 13 12
7 7 4 4 5 4 4 4 4 4 4 4 4 6 5 4 4 4 5 7 7 7 7 7 7 8 8 8 8 8 9 9 10 9 9 9 10 10 11 12 12 12 11
5 6 3 3 5 5 4 4 4 4 4 4 5 6 7 6 6 7 7 7 7 7 7 7 7 8 8 8 8 9 10 9 9 10 10 10 10 10 10 11 12 12 12
4 3 3 4 4 4 4 4 4 4 4 4 4 3 1 5 6 7 7 7 7 7 7 7 8 7 8 8 9 9 10 10 10 11 11 11 11 11 11 11 11 11 12
3 4 4 4 4 3 2 4 4 4 4 4 5 5 5 6 6 7 7 7 7 7 8 8 7 7 9 10 10 9 9 10 11 12 13 12 12 11 11 11 13 14 13
3 3 3 3 3 3 3 3 3 4 4 4 5 5 6 6 6 7 7 7 8 8 9 9 9 10 12 12 12 11 11 14 16 15 15 14 13 12 11 12 12 14 13
3 3 3 3 2 3 3 3 3 4 4 5 5 5 6 6 6 7 7 8 9 9 10 10 9 11 14 15 14 14 18 19 17 15 15 12 13 13 12 13 12 13 13
4 3 3 3 3 3 3 3 3 4 4 4 4 5 5 6 7 7 7 8 9 9 10 10 12 14 14 13 16 19 19 18 18 17 15 12 12 11 12 11 14 13 14
Wind_Direction
192 192 193 195 198 200 202 207 209 213 209 210 210 209 210 211 210 212 225 216 220 223 223 223 228 248 242 235 233 238 241 248 257 259 238 220 225 255 237 241 247 244 240
188 188 192 194 196 201 204 208 209 213 214 214 216 216 218 220 217 216 223 222 223 225 225 226 229 226 229 245 244 242 243 248 254 262 259 240 223 236 244 250 253 247 254
184 186 188 191 194 201 205 204 206 210 214 217 217 221 225 227 224 224 225 228 229 231 230 229 231 233 231 235 239 245 242 236 240 254 256 254 248 239 240 245 250 253 260
180 182 184 189 192 196 199 202 206 210 213 218 222 225 228 231 231 230 228 230 231 232 233 233 234 234 235 238 238 243 248 250 242 248 255 251 245 241 243 253 254 240 251
176 177 178 183 185 186 192 197 199 205 213 216 218 221 229 236 239 237 234 231 229 231 231 233 235 237 252 253 255 247 243 246 248 248 252 256 253 249 252 258 264 269 261
164 166 166 166 169 170 172 174 177 185 199 203 209 211 218 236 221 236 248 245 236 232 231 231 231 225 234 236 262 274 274 259 259 263 262 264 269 269 270 273 275 274 274
140 148 150 149 150 154 159 164 167 170 179 186 187 185 178 38 71 173 231 249 244 241 237 240 245 238 236 248 236 234 247 249 255 264 271 276 281 282 284 276 274 276 278
118 121 131 133 134 136 136 135 135 133 130 126 109 98 82 47 45 47 228 225 245 259 260 258 259 283 302 297 271 260 255 249 243 244 260 271 280 292 282 276 280 275 271
104 102 105 110 111 110 108 105 100 98 93 90 83 77 72 53 39 32 353 153 145 91 4 24 356 9 23 341 286 274 272 271 250 244 270 276 285 281 277 276 274 273 275
95 92 91 93 98 97 93 90 89 89 87 84 77 70 68 59 43 38 20 44 50 48 63 69 59 44 30 357 313 297 290 298 303 290 264 257 262 255 236 247 266 271 277
93 90 87 87 89 91 91 91 94 94 92 88 84 77 69 60 51 41 32 41 39 40 36 34 51 49 34 16 348 340 331 315 299 290 286 282 277 274 268 262 269 275 279
91 87 84 83 84 88 90 91 93 98 99 95 91 85 77 68 56 50 44 41 20 41 29 18 42 37 15 354 352 360 317 294 286 289 289 289 289 289 290 290 287 282 277
92 89 87 85 83 85 88 91 91 89 90 90 89 84 75 67 69 72 67 58 30 28 33 65 13 310 286 254 172 266 281 286 299 296 296 297 298 299 296 287 278 272 269
96 95 94 91 86 77 72 72 71 69 75 77 73 71 71 62 41 27 23 30 27 13 2 214 207 225 247 272 272 266 290 314 311 301 301 301 300 298 294 296 296 295 291
96 96 94 90 87 80 70 55 64 55 47 51 58 54 42 51 36 18 10 11 0 358 328 311 323 331 326 332 329 330 324 320 312 312 309 307 306 304 302 302 300 298 294
98 98 98 99 99 101 99 85 60 68 68 61 50 47 68 59 41 25 18 2 337 320 312 334 345 341 336 337 333 332 332 334 333 325 318 314 311 308 306 305 302 299 297
90 90 93 95 99 99 102 106 107 96 86 79 74 64 58 51 35 11 348 323 299 297 320 355 350 343 339 337 335 332 331 332 326 318 315 315 313 310 307 304 302 300 298
93 89 88 89 86 83 81 80 81 86 98 96 99 94 84 67 23 337 316 307 330 347 2 356 349 344 342 340 335 331 328 325 322 319 316 314 312 310 307 305 304 303 303
86 85 80 83 83 79 76 72 68 63 61 59 62 101 127 204 202 244 302 355 5 2 360 356 352 348 343 339 334 330 326 323 325 321 318 318 314 310 306 305 303 302 298
87 66 61 84 83 77 67 60 57 52 50 45 35 25 8 346 5 18 10 9 2 1 357 351 348 342 338 335 332 330 328 326 324 320 319 316 313 310 306 304 302 300 297
96 104 125 83 68 59 56 53 49 39 35 33 44 50 345 345 6 8 4 4 2 358 353 345 339 338 339 336 335 332 327 325 324 323 319 315 312 308 305 301 298 296 295
99 98 81 69 71 57 48 50 46 41 33 22 23 66 312 339 7 5 2 1 358 352 349 343 337 339 341 338 333 329 325 325 327 325 320 316 311 307 303 300 298 297 296
90 92 87 78 78 94 56 47 41 33 26 20 14 11 11 9 4 3 358 358 352 347 346 341 336 338 341 335 330 325 324 329 328 321 315 310 308 306 303 300 298 299 298
85 83 86 87 74 59 52 46 37 28 21 17 14 11 9 7 3 2 355 354 350 347 346 341 338 339 340 337 332 331 342 338 326 314 309 304 302 301 302 301 300 300 299
97 90 89 79 68 58 51 43 32 21 16 14 12 6 3 2 0 360 356 353 347 345 343 341 341 341 339 336 339 340 340 331 322 315 307 299 297 299 300 300 300 302 302
90 85 79 73 64 54 50 41 31 19 13 14 9 3 0 359 359 357 354 352 346 344 343 342 343 341 338 340 345 340 333 328 322 315 306 297 298 302 308 306 305 305 304
Height
1507 1510 1514 1518 1521 1525 1528 1531 1534 1537 1539 1541 1543 1545 1546 1548 1549 1549 1551 1552 1552 1553 1554 1554 1555 1556 1557 1558 1558 1559 1559 1560 1560 1560 1560 1559 1558 1558 1559 1558 1558 1558 1558
1504 1508 1511 1515 1518 1522 1525 1528 1531 1534 1536 1538 1540 1542 1544 1545 1546 1547 1548 1549 1549 1550 1551 1551 1552 1553 1553 1554 1555 1556 1556 1556 1557 1557 1557 1557 1555 1554 1554 1554 1554 1554 1554
1502 1505 1508 1512 1515 1518 1522 1525 1527 1530 1533 1535 1537 1538 1540 1542 1543 1544 1545 1545 1546 1547 1548 1548 1549 1550 1550 1551 1551 1552 1553 1553 1552 1553 1553 1553 1552 1552 1551 1550 1550 1548 1549
1500 1503 1506 1509 1513 1516 1519 1521 1524 1527 1529 1531 1533 1535 1536 1538 1539 1540 1541 1541 1542 1543 1543 1544 1545 1545 1546 1546 1547 1547 1548 1549 1549 1548 1548 1548 1548 1547 1546 1546 1546 1545 1544
1499 1501 1504 1507 1510 1513 1516 1518 1521 1523 1525 1527 1529 1531 1532 1534 1535 1536 1537 1537 1538 1538 1539 1539 1540 1541 1541 1542 1543 1544 1544 1544 1544 1544 1544 1543 1543 1543 1542 1541 1541 1540 1539
1497 1500 1502 1505 1508 1511 1513 1515 1517 1520 1522 1524 1525 1527 1528 1529 1530 1531 1532 1533 1533 1534 1534 1535 1535 1535 1536 1537 1537 1538 1538 1539 1539 1539 1538 1538 1537 1537 1537 1536 1535 1534 1534
1496 1498 1501 1503 1506 1509 1511 1513 1515 1517 1519 1521 1522 1523 1524 1525 1525 1526 1527 1527 1528 1529 1529 1529 1530 1531 1531 1531 1532 1532 1532 1532 1532 1532 1532 1532 1531 1531 1530 1530 1529 1528 1527
1495 1497 1499 1502 1505 1508 1510 1512 1513 1515 1516 1518 1519 1520 1520 1521 1522 1522 1523 1523 1524 1524 1524 1525 1525 1525 1525 1526 1526 1526 1526 1526 1526 1526 1525 1525 1525 1524 1523 1523 1522 1520 1518
1496 1499 1500 1502 1504 1507 1509 1510 1512 1513 1515 1516 1517 1517 1518 1518 1519 1519 1519 1520 1520 1520 1521 1520 1520 1520 1520 1520 1521 1520 1520 1520 1520 1519 1519 1518 1517 1517 1516 1516 1515 1514 1513
1498 1500 1502 1503 1505 1507 1508 1510 1511 1512 1514 1515 1516 1516 1517 1517 1517 1517 1517 1518 1518 1518 1517 1516 1516 1515 1515 1515 1515 1515 1515 1514 1514 1513 1512 1511 1510 1510 1509 1508 1508 1507 1505
1499 1501 1503 1505 1506 1508 1509 1511 1512 1513 1514 1515 1516 1516 1516 1516 1516 1516 1516 1516 1516 1516 1516 1515 1513 1512 1512 1512 1511 1511 1510 1509 1508 1508 1507 1506 1505 1504 1503 1502 1501 1500 1498
1501 1503 1505 1507 1508 1510 1511 1513 1514 1514 1515 1515 1516 1517 1517 1517 1516 1516 1515 1515 1515 1515 1514 1513 1511 1510 1509 1509 1508 1507 1506 1505 1505 1504 1503 1502 1501 1499 1498 1496 1495 1493 1491
1504 1506 1507 1509 1510 1512 1513 1515 1516 1516 1517 1518 1518 1519 1518 1518 1517 1516 1516 1515 1514 1513 1512 1511 1509 1508 1507 1506 1505 1503 1502 1502 1501 1500 1499 1497 1496 1494 1492 1490 1488 1486 1484
1507 1509 1510 1512 1513 1514 1515 1517 1517 1518 1519 1519 1519 1520 1519 1518 1517 1516 1516 1515 1514 1513 1511 1509 1507 1506 1505 1504 1503 1502 1500 1499 1497 1496 1495 1493 1491 1489 1487 1485 1483 1481 1479
1510 1512 1514 1515 1515 1516 1517 1517 1518 1519 1519 1520 1520 1520 1519 1518 1516 1515 1514 1513 1512 1510 1509 1509 1508 1507 1505 1503 1502 1500 1498 1496 1495 1493 1491 1489 1486 1484 1482 1481 1478 1476 1474
1514 1516 1517 1518 1519 1519 1519 1519 1519 1520 1520 1520 1519 1518 1517 1517 1515 1514 1513 1511 1510 1508 1508 1508 1506 1505 1503 1501 1499 1497 1496 1494 1491 1489 1487 1485 1482 1480 1478 1475 1473 1471 1468
1517 1518 1520 1521 1521 1522 1522 1522 1522 1521 1520 1519 1519 1518 1517 1516 1514 1513 1511 1510 1508 1507 1507 1506 1505 1503 1501 1499 1497 1495 1493 1491 1488 1486 1483 1481 1478 1475 1473 1471 1468 1466 1463
1519 1520 1521 1522 1523 1523 1524 1524 1524 1524 1523 1521 1519 1517 1516 1515 1513 1512 1510 1509 1509 1508 1507 1505 1503 1501 1499 1497 1495 1492 1490 1488 1485 1483 1480 1477 1474 1471 1468 1466 1464 1461 1458
1522 1522 1522 1523 1524 1524 1524 1524 1524 1524 1523 1523 1521 1519 1516 1515 1513 1511 1510 1510 1509 1507 1505 1503 1501 1499 1497 1495 1492 1490 1487 1485 1482 1479 1476 1473 1470 1467 1464 1461 1458 1455 1453
1522 1522 1523 1525 1525 1525 1525 1525 1524 1524 1523 1522 1521 1520 1518 1517 1516 1514 1512 1510 1508 1506 1504 1502 1500 1497 1495 1492 1490 1487 1484 1482 1478 1475 1472 1469 1466 1463 1459 1456 1453 1450 1447
1524 1524 1524 1526 1526 1525 1525 1525 1524 1524 1523 1523 1521 1519 1517 1517 1516 1514 1512 1510 1508 1505 1503 1501 1498 1496 1493 1490 1488 1484 1481 1478 1475 1472 1469 1465 1462 1458 1454 1451 1447 1444 1441
1525 1526 1526 1526 1526 1525 1525 1525 1524 1524 1523 1523 1522 1520 1517 1517 1515 1513 1511 1509 1507 1504 1502 1499 1497 1494 1491 1488 1485 1481 1478 1475 1472 1468 1464 1461 1457 1453 1449 1446 1442 1439 1436
1526 1526 1526 1526 1526 1525 1525 1525 1525 1524 1523 1522 1521 1520 1518 1517 1515 1513 1511 1508 1505 1503 1500 1497 1495 1492 1489 1485 1482 1479 1476 1472 1468 1464 1460 1456 1452 1448 1445 1441 1437 1434 1431
1526 1526 1526 1526 1526 1526 1525 1525 1524 1524 1523 1522 1521 1520 1518 1516 1514 1512 1510 1507 1504 1502 1499 1496 1493 1490 1487 1483 1480 1477 1472 1467 1463 1459 1455 1451 1447 1444 1440 1436 1433 1430 1426
1526 1526 1526 1526 1526 1526 1525 1525 1524 1523 1523 1522 1520 1519 1518 1516 1514 1511 1509 1506 1503 1500 1497 1494 1491 1488 1484 1481 1477 1473 1468 1464 1459 1455 1451 1447 1443 1440 1436 1433 1429 1425 1422
1526 1526 1526 1526 1526 1525 1525 1524 1524 1523 1522 1521 1520 1518 1517 1515 1513 1510 1507 1505 1502 1499 1496 1493 1489 1486 1482 1478 1474 1469 1464 1460 1456 1452 1448 1444 1440 1437 1433 1429 1426 1422 1418